Location: Newark
(48.4472°N, 1.4892°E)
Time: 19:26:04
(UTC+00:00)

Transit 4A - Pass Details

Date: 01 December 2019
Orbit: 870 x 975 km, 66.8° (Epoch: 05 December)

Event Time Altitude Azimuth Distance (km) Brightness Sun altitude
Rises 17:02:13 0° 147° (SSE) 3,620 10.9 -9.7°
Reaches altitude 10° 17:07:15 10° 112° (ESE) 2,655 9.9 -10.5°
Maximum altitude 17:08:34 11° 100° (E) 2,598 9.7 -10.7°
Enters shadow 17:09:13 11° 94° (E) 2,608 9.7 -10.8°
